This is the latest recevied weather packets stored in our database for station/object AD8BV. If no packets are shown the sender has not sent any weather packets the latest 10 day(s).
| Time | Temp. | Humidity | Pressure | Rain* | Wind** | Luminosity | Snow |
|---|---|---|---|---|---|---|---|
| 1777471720 | 9.44° C | 92% | 1013.9 hPa | 0 mm | - | 171 W/m² | - |
| 1777471416 | 9.44° C | 92% | 1013.9 hPa | 0 mm | - | 163 W/m² | - |
| 1777471113 | 8.89° C | 92% | 1013.8 hPa | 0 mm | - | 161 W/m² | - |
| 1777470810 | 8.89° C | 93% | 1013.7 hPa | 0 mm | - | 147 W/m² | - |
| 1777470507 | 8.89° C | 93% | 1013.7 hPa | 0 mm | - | 117 W/m² | - |
| 1777470203 | 8.89° C | 94% | 1013.8 hPa | 0 mm | - | 92 W/m² | - |
| 1777469899 | 8.33° C | 94% | 1014.1 hPa | 0 mm | - | 65 W/m² | - |
| 1777469595 | 8.33° C | 94% | 1014.1 hPa | 0 mm | - | 52 W/m² | - |
| 1777469289 | 8.33° C | 94% | 1014.2 hPa | 0 mm | - | 39 W/m² | - |
| 1777468985 | 8.33° C | 94% | 1014.4 hPa | 0 mm | - | 29 W/m² | - |
| 1777468680 | 8.33° C | 94% | 1014.5 hPa | 0 mm | - | 25 W/m² | - |
| 1777468377 | 8.33° C | 94% | 1014.5 hPa | 0 mm | - | 27 W/m² | - |
| 1777468073 | 8.33° C | 94% | 1014.4 hPa | 0 mm | - | 23 W/m² | - |
| 1777467769 | 8.33° C | 94% | 1014.8 hPa | 0 mm | - | 14 W/m² | - |
| 1777467465 | 8.33° C | 94% | 1014.5 hPa | 0 mm | - | 16 W/m² | - |
| 1777467160 | 8.33° C | 94% | 1014.6 hPa | 0 mm | - | 14 W/m² | - |
| 1777466858 | 8.33° C | 94% | 1014.4 hPa | 0 mm | - | 21 W/m² | - |
| 1777466556 | 8.33° C | 94% | 1014.2 hPa | 0 mm | - | 32 W/m² | - |
| 1777466252 | 8.33° C | 94% | 1014.1 hPa | 0 mm | - | 39 W/m² | - |
| 1777465948 | 8.33° C | 94% | 1014 hPa | 0 mm | - | 42 W/m² | - |
| 1777465644 | 8.33° C | 94% | 1014.1 hPa | 0 mm | - | 52 W/m² | - |
| 1777465340 | 8.33° C | 94% | 1014.1 hPa | 0 mm | - | 28 W/m² | - |
| 1777465039 | 8.33° C | 94% | 1014.3 hPa | 1.27 mm | - | 32 W/m² | - |
| 1777464734 | 8.33° C | 94% | 1014.3 hPa | 1.27 mm | - | 35 W/m² | - |
| 1777464431 | 8.33° C | 94% | 1014.1 hPa | 0 mm | - | 21 W/m² | - |
* Rain latest hour (hover to see other rain measurements)
** Current wind speed in m/s (hover to see current wind gust speed)